Flag for French Polynesia Weather past 2 weeks in Gambier Islands, French Polynesia

Now
77 °F

Scattered clouds.


Feels Like: 79 °F
Forecast: 72 / 76 °F
Wind: 2 mph from West

Location: Rikitea

Current Time: Sep 30, 2014 at 2:12:42 PM

Latest Report: Sep 30, 2014 at 1:00 PM


Visibility: 25 mi

Pressure: 29.88 "Hg

Humidity: 73%

Dew point: 68 °F

Location of Gambier IslandsLocation

Historic Weather in Gambier Islands — Graph

°F

Gambier Islands temperature yesterday

Maximum temperature yesterday: 77 °F (at 11:00 AM)
Minimum temperature yesterday: 71 °F (at 10:00 PM)
Average temperature yesterday: 73 °F

Past Weeks' High & Low Weather Summary

 TemperatureHumidityPressure
High80 °F (Sep 25, 12:00 PM)97% (Sep 16, 7:00 AM)30.17 "Hg (Sep 16, 7:00 AM)
Low64 °F (Sep 17, 6:00 AM)65% (Sep 26, 2:00 PM)29.89 "Hg (Sep 30, 4:00 AM)
Average72 °F85%30.07 "Hg
* Reported Sep 15 12:00 Noon — Sep 30 12:00 Noon, Gambier Islands, Weather by CustomWeather, © 2014

Note: Actual official high and low records may vary slightly from our data, if they occured in-between our weather recording intervals... More about our weather records

Advertising

Gambier Islands weather history for previous 24 hours

 ConditionsComfort  
Time TempWeatherWind HumidityBarometerVisibility
12:00 PM
Sep 30
77 °FScattered clouds.5 mph72%29.90 "Hg25 mi
11:00 AM75 °FPartly sunny.2 mph81%29.93 "Hg19 mi
10:00 AM74 °FPartly sunny.2 mph83%29.96 "Hg19 mi
9:00 AM73 °FOvercast.3 mph88%29.97 "Hg16 mi
8:00 AM75 °FScattered clouds.3 mph78%29.96 "Hg19 mi
6:00 AM71 °FPassing clouds.3 mph86%29.93 "Hg19 mi
5:00 AM71 °FMild.2 mph88%29.91 "HgN/A
4:00 AM71 °FMild.2 mph88%29.89 "HgN/A
3:00 AM71 °FMild.1 mph90%29.90 "HgN/A
2:00 AM71 °FMild.1 mph91%29.91 "HgN/A
1:00 AM70 °FMild.2 mph90%29.93 "HgN/A
12:00 AM70 °FMild.3 mph90%29.95 "HgN/A
11:00 PM
Sep 29
71 °FMild.7 mph88%29.97 "HgN/A
10:00 PM71 °FMild.3 mph90%29.98 "HgN/A
9:00 PM71 °FMild.8 mph86%29.99 "HgN/A
8:00 PM71 °FMild.3 mph89%29.98 "HgN/A
7:00 PM71 °FMild.3 mph88%29.98 "HgN/A
6:00 PM73 °FMild.8 mph82%29.97 "HgN/A
5:00 PM74 °FMild.6 mph83%29.96 "HgN/A
4:00 PM74 °FScattered clouds.6 mph81%29.94 "Hg19 mi
3:00 PM75 °FPartly sunny.6 mph81%29.96 "Hg19 mi
2:00 PM74 °FMild.6 mph82%29.98 "HgN/A
Weather by CustomWeather, © 2014

See weather overviewHow to use our weather pages